Home > Weather > Kuching > Past weeks

Flag for Malaysia Weather for the Past 2 Weeks in Kuching, Malaysia

Now
79 °F

Light rain. Broken clouds.


Feels Like: 82 °F
Forecast: 77 / 82 °F
Wind: No wind

Location: Kuching Airport

Current Time: Feb 6, 2016 at 11:52:11 AM

Latest Report: Feb 6, 2016 at 11:00 AM


Visibility: N/A

Pressure: 29.89 "Hg

Humidity: 89%

Dew point: 75 °F

Location of KuchingLocation

Historic Weather in Kuching — Graph

°F

Kuching Temperature Yesterday

Maximum temperature yesterday: 90 °F (at 11:30 AM)
Minimum temperature yesterday: 77 °F (at 2:30 AM)
Average temperature yesterday: 83 °F

High & Low Weather Summary for the Past Weeks

 TemperatureHumidityPressure
High90 °F (Jan 22, 1:00 PM)100% (Jan 23, 10:00 AM)29.95 "Hg (Jan 23, 10:00 AM)
Low75 °F (Jan 25, 2:30 AM)63% (Jan 27, 12:00 PM)29.71 "Hg (Feb 5, 3:00 PM)
Average81 °F87%29.84 "Hg
* Reported Jan 22 10:00 AM — Feb 6 10:00 AM, Kuching, Weather by CustomWeather, © 2016

Note: Actual official high and low records may vary slightly from our data, if they occured in-between our weather recording intervals... More about our weather records

Advertising

Kuching Weather History for the Previous 24 Hours

 ConditionsComfort  
Time TempWeatherWind HumidityBarometerVisibility
10:00 AM
Sat, Feb 6
77 °FRain. Broken clouds.1 mph94%29.89 "Hg2 mi
9:30 AM75 °FRain. Broken clouds.3 mph100%29.89 "Hg2 mi
9:00 AM75 °FRain. Broken clouds.7 mph94%29.89 "Hg2 mi
8:30 AM75 °FThunderstorms. More clouds than sun.10 mph94%29.86 "Hg2 mi
8:00 AM75 °FStrong thunderstorms. More clouds than sun.6 mph100%29.83 "Hg1 mi
7:30 AM75 °FThunderstorms. Broken clouds.6 mph100%29.83 "Hg1 mi
7:00 AM75 °FStrong thunderstorms. Broken clouds.5 mph100%29.80 "Hg3 mi
6:30 AM75 °FStrong thunderstorms. Partly cloudy.6 mph100%29.80 "Hg4 mi
6:00 AM77 °FStrong thunderstorms. Partly cloudy.5 mph94%29.80 "Hg5 mi
5:30 AM77 °FThunderstorms. Partly cloudy.3 mph100%29.77 "Hg5 mi
5:00 AM77 °FThunderstorms. Partly cloudy.2 mph100%29.77 "Hg5 mi
4:30 AM77 °FStrong thunderstorms. Partly cloudy.3 mph100%29.77 "Hg5 mi
4:00 AM79 °FThunderstorms. Partly cloudy.5 mph94%29.77 "HgN/A
3:30 AM79 °FThunderstorms. Partly cloudy.1 mph94%29.77 "HgN/A
3:00 AM81 °FThunderstorms. Partly cloudy.2 mph89%29.77 "HgN/A
2:30 AM81 °FPartly cloudy.3 mph89%29.77 "HgN/A
2:00 AM81 °FPartly cloudy.3 mph89%29.80 "HgN/A
1:30 AM81 °FPartly cloudy.3 mph89%29.80 "HgN/A
1:00 AM81 °FPartly cloudy.3 mph89%29.80 "HgN/A
12:30 AM81 °FPartly cloudy.3 mph89%29.80 "HgN/A
12:00 AM81 °FPartly cloudy.3 mph89%29.83 "HgN/A
11:30 PM
Fri, Feb 5
81 °FPartly cloudy.2 mph89%29.83 "HgN/A
11:00 PM81 °FPartly cloudy.3 mph89%29.80 "HgN/A
10:30 PM81 °FPartly cloudy.3 mph89%29.80 "HgN/A
10:00 PM82 °FPartly cloudy.5 mph89%29.80 "HgN/A
9:30 PM82 °FPartly cloudy.5 mph84%29.80 "HgN/A
9:00 PM82 °FPartly cloudy.5 mph84%29.77 "HgN/A
8:30 PM82 °FPartly cloudy.6 mph84%29.77 "HgN/A
8:00 PM82 °FPartly cloudy.7 mph84%29.77 "HgN/A
7:30 PM84 °FPartly cloudy.7 mph79%29.77 "HgN/A
7:00 PM84 °FPartly cloudy.7 mph79%29.74 "HgN/A
6:30 PM84 °FBroken clouds.10 mph79%29.71 "HgN/A
6:00 PM86 °FBroken clouds.10 mph75%29.71 "HgN/A
5:30 PM86 °FBroken clouds.13 mph75%29.71 "HgN/A
5:00 PM88 °FBroken clouds.12 mph70%29.71 "HgN/A
4:30 PM88 °FBroken clouds.10 mph70%29.71 "HgN/A
4:00 PM90 °FBroken clouds.10 mph67%29.71 "HgN/A
3:30 PM88 °FBroken clouds.8 mph70%29.71 "HgN/A
3:00 PM90 °FBroken clouds.9 mph67%29.71 "HgN/A
2:30 PM90 °FBroken clouds.7 mph67%29.74 "HgN/A
2:00 PM90 °FBroken clouds.9 mph71%29.74 "HgN/A
1:30 PM90 °FBroken clouds.9 mph71%29.77 "HgN/A
1:00 PM88 °FBroken clouds.9 mph75%29.77 "HgN/A
12:30 PM88 °FBroken clouds.7 mph70%29.80 "HgN/A
12:00 PM88 °FBroken clouds.8 mph75%29.80 "HgN/A
11:30 AM90 °FBroken clouds.6 mph71%29.80 "HgN/A
Weather by CustomWeather, © 2016

See weather overviewHow to use our weather pages